LiveATC.Net - Listen to live air traffic control over the Internet! Contact LiveATC.net for advertising information


ICAO: LPPT  IATA: LIS   Airport: Lisboa Airport
City: Lisbon
Country: Portugal   Continent: Europe
LPPT METAR Weather: LPPT 280000Z 34018KT 9999 FEW018 10/07 Q1029 WS R03
LPPT Flight Activity (FlightAware)
LPPT Approach
Feed Status: DOWN
Last heard on: 2015-01-19 14:28:03 (39 days 10 hours 6 minutes ago)
LPPT Approach Audio Archives
FacilityFrequency
Lisbon Approach119.100


NOTICE

Unauthorized use prohibited. See LiveATC.net Terms of Service


Find LiveATC Audio Streams


Airport/ARTCC Code

Frequency
(e.g., 124.400, 128.75)
Site-wide search

Browse LiveATC Feeds
LiveATC Coverage Map
Top 50 LiveATC Feeds
Bad Weather Areas

LiveATC FAQ
Offer a LiveATC Feed
Contact LiveATC.net
Press Inquiries

LiveATC on iPhone
LiveATC on Android

LiveATC Mobile
(Mobile browser)

ATC Audio Archives
Interesting Recordings

LiveATC Forums


Home Page
About LiveATC.net
Make a Donation
LiveATC Bookstore

Terms of Use
Privacy Policy

ATC/Radar Sites
U.S. ARTCC Freqs
Canadian Air Freqs

AIRMETs/SIGMETs

FAA Airport Status
Nat'l Airspace Status
Arrival Demand Charts


Server Software By:
Icecast.org
Liquidsoap

Please make a donation to help us keep growing!